Regional Weather Roundup
Issued by NWS

Home | Current Version | Previous Version | Text Only | Print | Product List | Glossary On
Versions: 1 2 3 4 5 6 7 8 9 10 11 12 13 14 15 16 17 18 19 20 21 22 23 24 25 26 27 28
000
ASUS45 KTFX 270510
RWRMT
MONTANA REGIONAL WEATHER ROUNDUP
NATIONAL WEATHER SERVICE GREAT FALLS MT
1100 PM MDT SAT MAY 26 2018

NOTE: "FAIR" INDICATES FEW OR NO CLOUDS BELOW 12000 FEET WITH NO
SIGNIFICANT WEATHER AND/OR OBSTRUCTIONS TO VISIBILITY.

MTZ001>007-043-270600-
WEST OF THE DIVIDE

CITY           SKY/WX    TMP DP  RH WIND       PRES   REMARKS
KALISPELL      FAIR      56  53  90 SW5       29.96R
MISSOULA       FAIR      60  46  59 NW10      30.00R
BUTTE          FAIR      49  41  74 S7        30.05R
MULLAN PASS    FAIR      44  42  93 NW6       30.11R
ANACONDA         N/A     52  41  66 CALM      30.03R
DEER LODGE       N/A     48  45  87 CALM      30.04R
HAMILTON         N/A     61  48  63 MISG      30.00R
PLAINS           N/A     57  48  72 CALM      30.01R
RONAN            N/A     61  50  67 CALM      30.00S
$$

MTZ008-052>055-270600-
SOUTHWEST MONTANA

CITY           SKY/WX    TMP DP  RH WIND       PRES   REMARKS
BOZEMAN        FAIR      60  50  69 VRB7      29.98R
DILLON         FAIR      50  43  77 E5        29.99R
ENNIS          CLOUDY    57  45  62 N16       30.02R
W YELLOWSTONE  CLOUDY    59  45  58 N8G16     30.01R
TWIN BRIDGES     N/A     59  39  47 N8        29.97R
$$

MTZ009-010-012-014-046-048-049-054-270600-
EAST SLOPES AND CENTRAL MONTANA

CITY           SKY/WX    TMP DP  RH WIND       PRES   REMARKS
CUT BANK       FAIR      54  46  74 W5        29.94R
GREAT FALLS    FAIR      62  48  60 CALM      29.92S
MALMSTROM AFB  FAIR      61  50  66 CALM      29.92S
HELENA         FAIR      62  48  60 W7        29.96R
CHOTEAU          N/A     61  45  55 SW3       29.97R
WHITE SULPHUR    N/A     57  50  77 NW6       30.00R
$$

MTZ011-013-016-021-045-047-050-051-270600-
NORTH CENTRAL MONTANA

CITY           SKY/WX    TMP DP  RH WIND       PRES   REMARKS
HAVRE          FAIR      65  47  52 NW7       29.86R
LEWISTOWN      FAIR      59  49  69 S10       29.96F
N BAR RANCH    LGT RAIN  57  48  72 W15G24    29.98S
$$

MTZ017>020-022>027-061-062-270600-
NORTHEAST MONTANA

CITY           SKY/WX    TMP DP  RH WIND       PRES   REMARKS
GLASGOW        FAIR      67  59  75 CALM      29.73R
GLENDIVE       MOCLDY    74  56  53 NW18G26   29.71R
JORDAN           N/A     64  61  90 S12       29.76F
MALTA          CLEAR     68  52  56 W8        29.74R
SIDNEY         FAIR      70  56  61 NW43G66   29.71R THUNDER
WOLF POINT     LGT RAIN  67  57  70 NE25G31   29.71R
PLENTYWOOD       N/A     70  57  64 S5        29.82R
POPLAR           N/A     66  55  68 NE9       29.78F
SCOBEY           N/A     70  46  42 SE8       29.74R
$$

MTZ028>42-056>058-270600-
SOUTHCENTRAL AND SOUTHEAST MONTANA

CITY           SKY/WX    TMP DP  RH WIND       PRES   REMARKS
BAKER          FAIR      72  60  66 E13       29.68F
BILLINGS       MOCLDY    67  54  63 NW25      29.86R
LIVINGSTON     FAIR      57  51  80 SE8       30.00R
MILES CITY     FAIR      73  62  68 NW18      29.68R
BIG TIMBER     CLEAR     57  50  77 N13       30.02R
EKALAKA          N/A     71  58  63 SE12      29.71
FORSYTH          N/A    N/A N/A N/A W7        29.73R
LAUREL           N/A     63  52  67 NW31G46   29.87S
$$

REGIONAL REPORTS...DAKOTAS

CITY           SKY/WX    TMP DP  RH WIND       PRES   REMARKS
WILLISTON      FAIR      79  51  37 NE6       29.68S
MINOT          FAIR      76  49  38 SE8       29.70F
DICKINSON      FAIR      71  57  61 E12       29.70S
BEACH          FAIR      73  59  60 SE12      29.70F
CROSBY         FAIR      72  50  46 SW3       29.70S
TIOGA          FAIR      66  54  63 E6        29.73S
WATFORD CITY   FAIR      73  50  43 SE8       29.69F
BISMARCK       MOCLDY    73  54  51 CALM      29.72F
GRAND FORKS    FAIR      62  56  80 S3        29.72R
FARGO          FAIR      68  51  54 CALM      29.73R
BUFFALO SD       N/A     72  59  63 E12       29.64F
RAPID CITY     FAIR      70  61  73 E3        29.72R
$$

REGIONAL REPORTS...WYOMING/IDAHO/WASHINGTON

CITY           SKY/WX    TMP DP  RH WIND       PRES   REMARKS
GILLETTE       FAIR      71  60  68 W12       29.82R
SHERIDAN       FAIR      69  55  60 NW14      29.84R
BUFFALO WY     MOCLDY    68  54  60 NW18G28   29.87S
CODY           FAIR      61  42  49 CALM      29.93R
YELLOWSTONE LA   N/A     44  36  73 CALM      30.09R
IDAHO FALLS    FAIR      56  45  66 NW12      29.94R
SALMON         FAIR      55  46  71 CALM      29.98R
BOISE          FAIR      57  52  83 CALM      29.93R
SPOKANE        MOCLDY    62  44  51 SW14      30.02R
$$

REGIONAL REPORTS...ALBERTA

CITY           SKY/WX    TMP DP  RH WIND       PRES   REMARKS
CALGARY        PTCLDY    66  45  45 W5        29.84R
CARDSTON         N/A     59  46  63 SW8         N/A
EDMONTON       LGT RAIN  59  37  44 W2        29.87R
FORT MCMURRAY  MOCLDY    59  39  47 NE3       29.74R
HIGH LEVEL     PTCLDY    52  43  71 VRB3      29.66R
LETHBRIDGE     CLEAR     63  46  55 SW15      29.84S
LLOYDMINSTER   CLEAR     48  37  66 W7        29.84R
MEDICINE HAT   CLEAR     61  48  63 VRB2      29.84R
PEACE RIVER    MOCLDY    57  30  35 W16G24    29.80R
PINCHER CREEK    N/A     57  45  62 SW12      29.91R
WATERTON GATE    N/A     59  46  63 SW15G21     N/A
$$

REGIONAL REPORTS...SASKATCHEWAN

CITY           SKY/WX    TMP DP  RH WIND       PRES   REMARKS
CORONACH         N/A     66  54  63 S12         N/A
ESTEVAN        MOCLDY    70  50  49 S2        29.70R
MOOSE JAW        N/A     64  52  63 W10         N/A
PRINCE ALBERT  MOCLDY    57  57 100 SW3       29.77R
REGINA         MOCLDY    64  59  82 SE3       29.71R
ROCKGLEN         N/A     72  50  46 N10         N/A
SASKATOON      PTCLDY    55  55 100 NW6       29.79R
SWIFT CURRENT  CLEAR     61  55  82 NW7       29.82R
VAL MARIE        N/A     66  48  52 N16         N/A
$$




USA.gov is the U.S. government's official web portal to all federal, state and local government web resources and services.